Flag for Norway Weather past 2 weeks in Lillehammer, Norway

Now
48 °F

Cool.


Feels Like: 47 °F
Forecast: 44 / 51 °F
Wind: 3 mph from Southeast

Location: Lillehammer-Saetherengen

Current Time: May 24, 2015 at 6:06:49 PM

Latest Report: May 24, 2015 at 5:00 PM


Visibility: N/A

Pressure: 29.79 "Hg

Humidity: 67%

Dew point: 37 °F

Location of LillehammerLocation

Historic Weather in Lillehammer — Graph

°F

Lillehammer temperature yesterday

Maximum temperature yesterday: 59 °F (at 4:00 PM)
Minimum temperature yesterday: 36 °F (at 6:00 AM)
Average temperature yesterday: 48 °F

Past Weeks' High & Low Weather Summary

 TemperatureHumidityPressure
High59 °F (May 21, 7:00 PM)96% (May 17, 12:00 AM)30.10 "Hg (May 17, 12:00 AM)
Low35 °F (May 15, 6:00 AM)20% (May 15, 6:00 PM)29.47 "Hg (May 12, 10:00 PM)
Average45 °F67%29.79 "Hg
* Reported May 9 5:00 PM — May 24 5:00 PM, Lillehammer, Weather by CustomWeather, © 2015

Note: Actual official high and low records may vary slightly from our data, if they occured in-between our weather recording intervals... More about our weather records

Advertising

Lillehammer weather history for previous 24 hours

 ConditionsComfort  
Time TempWeatherWind HumidityBarometerVisibility
5:00 PM
Sun, May 24
48 °FCool.3 mph67%29.79 "HgN/A
4:00 PM47 °FCool.5 mph69%29.81 "HgN/A
3:00 PM51 °FCool.6 mph51%29.80 "HgN/A
2:00 PM52 °FCool.3 mph44%29.80 "HgN/A
1:00 PM52 °FCool.5 mph45%29.82 "HgN/A
12:00 PM51 °FCool.3 mph46%29.84 "HgN/A
11:00 AM46 °FCool.2 mph61%29.87 "HgN/A
10:00 AM45 °FCool.2 mph57%29.88 "HgN/A
9:00 AM44 °FQuite cool.1 mph62%29.89 "HgN/A
8:00 AM42 °FQuite cool.1 mph66%29.91 "HgN/A
7:00 AM41 °FQuite cool.1 mph71%29.91 "HgN/A
6:00 AM38 °FChilly.No wind73%29.92 "HgN/A
5:00 AM38 °FChilly.1 mph71%29.93 "HgN/A
4:00 AM40 °FChilly.1 mph67%29.93 "HgN/A
3:00 AM40 °FQuite cool.1 mph60%29.94 "HgN/A
2:00 AM41 °FQuite cool.2 mph55%29.94 "HgN/A
1:00 AM41 °FQuite cool.2 mph53%29.95 "HgN/A
12:00 AM42 °FQuite cool.2 mph54%29.94 "HgN/A
11:00 PM
Sat, May 23
46 °FCool.3 mph48%29.93 "HgN/A
10:00 PM49 °FCool.3 mph40%29.92 "HgN/A
9:00 PM53 °FCool.3 mph34%29.90 "HgN/A
8:00 PM54 °FCool.2 mph34%29.88 "HgN/A
7:00 PM55 °FCool.3 mph33%29.87 "HgN/A
6:00 PM57 °FRefreshingly cool.5 mph31%29.85 "HgN/A
Weather by CustomWeather, © 2015

See weather overviewHow to use our weather pages